Tracking 30995 objects as of 5-Jul-2025
HD Live streaming from Space Station
objects crossing your sky now

STARLINK-32235

Track STARLINK-32235 now!
10-day predictions
STARLINK-32235 is classified as:


NORAD ID: 60739
Int'l Code: 2024-152V
Perigee: 481.3 km
Apogee: 483.4 km
Inclination: 53.2 °
Period: 94.1 minutes
Semi major axis: 6853 km
RCS: Unknown
Launch date: August 28, 2024
Source: United States (US)
Launch site: AIR FORCE EASTERN TEST RANGE (AFETR)
Your satellite tracking list
Your tracking list is empty




NASA's NSSDC Master Catalog

Two Line Element Set (TLE):
1 60739U 24152V   25186.44275123  .00000855  00000-0  41010-4 0  9997
2 60739  53.1614 337.0510 0001514 113.4762 246.6398 15.30196670 48931
Source of the keplerian elements: AFSPC